[[{"header":{"parameterUnit":"m.s-1","parameterCategory":1,"la1":30.2991,"la2":30.254,"lo1":-89.0895,"lo2":-89.0444,"dy":0.0017,"dx":0.0017,"nx":28,"ny":28,"refTime":"2024-03-24T21:00:00:Z","depth":0,"parameterNumber":2,"parameterNumberName":"U-component_of_WINDS"},"data":[0,0,0,0,0,0,0,0,0,0,0,0,0,0,0,0,0,0,0,0,0,0,0,0,0,0,0,0,0,0,0,0,0,0,0,0,0,0,0,0,0,0,0,0,0,0,0,0,0,0,0,0,0,0,0,0,0,0,2.2831,2.2832,0,2.2927,2.2929,2.293,2.2896,2.2893,2.2891,2.2889,2.2986,2.299,2.2995,0,0,0,0,0,0,0,0,0,0,0,0,0,2.2615,2.2619,2.2831,2.2832,2.2833,2.2927,2.2929,2.293,2.2896,2.2893,2.2891,2.2888,2.2984,2.299,2.2995,0,0,0,0,0,0,0,0,0,0,0,0,0,2.271,2.2621,2.2831,2.2828,2.2828,2.2927,2.2929,2.293,2.2896,2.2893,2.289,2.2887,2.2982,2.2989,2.2996,2.3102,0,0,2.3017,2.302,0,0,0,0,0,0,0,0,2.2705,2.2718,2.2827,2.2828,2.2829,2.2896,2.2888,2.2988,2.2897,2.2871,2.2889,2.2885,2.2958,2.2967,2.2992,2.3107,2.3111,2.3017,2.3021,2.3024,2.3026,0,0,0,0,0,0,0,2.2698,2.2714,2.2869,2.2829,2.283,2.2821,2.2831,2.2907,2.2931,2.2873,2.287,2.2882,2.2958,2.2985,2.2994,2.3112,2.3017,2.3023,2.3027,2.303,2.3319,2.3322,0,0,0,0,0,0,2.2691,2.2708,2.2866,2.2872,2.2758,2.2827,2.2838,2.2878,2.293,2.2935,2.2885,2.288,2.2975,2.2986,2.2997,2.3125,2.3024,2.3031,2.3035,2.3315,2.3319,2.3323,0,0,0,0,0,0,2.2687,2.2706,2.2862,2.279,2.2809,2.2835,2.2879,2.2881,2.2909,2.294,2.2944,2.2909,2.2973,2.2988,2.3076,2.3128,2.3034,2.304,2.3311,2.3316,2.3321,2.3382,0,0,0,0,0,0,2.2681,2.2704,2.2746,2.2791,2.2813,2.2941,2.2882,2.2886,2.2921,2.2916,2.2963,2.2967,2.2972,2.3066,2.3083,2.3136,2.3045,2.3306,2.3313,2.332,2.3376,2.3389,2.34,0,0,0,0,0,2.2673,2.2759,2.2748,2.2767,2.2865,2.2944,2.2956,2.296,2.2925,2.2967,2.2986,2.2966,2.312,2.3076,2.3094,2.315,2.3303,2.3311,2.3319,2.337,2.3386,2.34,0,0,0,0,0,0,2.2718,2.2764,2.2753,2.2856,2.2896,2.2938,2.299,2.2977,2.3028,2.3021,2.3023,2.3034,2.3125,2.3146,2.3097,2.3255,2.3206,2.3218,2.3239,2.3254,2.3266,2.3259,2.3051,0,0,0,0,0,2.274,2.2801,2.2838,2.2925,2.2946,2.2965,2.2999,2.2999,2.304,2.3057,2.3083,2.3124,2.3181,2.3218,2.3273,2.3378,2.3388,2.3426,2.3438,2.3448,2.3458,2.3515,2.3532,2.3349,2.3349,2.3349,0,0,2.2786,2.2819,2.2857,2.2935,2.2966,2.3028,2.2979,2.3047,2.3093,2.3067,2.3153,2.3173,2.3218,2.3316,2.336,2.3336,2.3511,2.3458,2.3466,2.3471,2.3525,2.3543,2.3558,2.3355,2.3354,2.3353,0,0,2.2901,2.2933,2.3008,2.3041,2.3089,2.3101,2.3119,2.3163,2.3176,2.3262,2.3244,2.3298,2.3397,2.343,2.3459,2.3587,2.357,2.3604,2.3669,2.3724,2.3738,2.3751,2.3797,2.3813,2.3614,2.3615,2.3615,0,2.2952,2.3046,2.3049,2.3119,2.3153,2.3133,2.3209,2.324,2.3303,2.3327,2.33,2.3423,2.3452,2.3557,2.3588,2.3613,2.3633,2.3599,2.3736,2.3749,2.3761,2.3804,2.3821,2.3618,2.3618,2.3618,2.3617,0,2.3106,2.3171,2.3226,2.3289,2.3329,2.3402,2.3415,2.3456,2.3452,2.3466,2.3554,2.3588,2.3649,2.3673,2.367,2.3778,2.3762,2.3735,2.3686,2.3782,2.3823,2.384,2.3624,2.3623,2.3622,2.3621,0,0,2.3252,2.3316,2.3336,2.3364,2.3415,2.3465,2.3537,2.3597,2.3632,2.3676,2.3735,2.3819,2.3795,2.3829,2.3828,2.3877,2.3976,2.3845,2.3846,2.3868,2.4096,2.4116,2.4135,2.3964,2.3968,2.397,2.4092,0,2.3372,2.3498,2.3503,2.3618,2.3678,2.3659,2.3721,2.3759,2.3775,2.3827,2.3843,2.3903,2.3867,2.3887,2.3934,2.3954,2.4022,2.3945,2.4019,2.4022,2.4009,2.4156,2.4177,2.4291,2.4108,2.4111,2.4113,0,2.3528,2.3578,2.3699,2.3742,2.3767,2.3823,2.3879,2.3929,2.3971,2.3979,2.4017,2.401,2.4081,2.4029,2.4128,2.4076,2.4106,2.412,2.4125,2.4132,2.4073,2.4168,2.4328,2.4345,2.4138,2.4136,2.4134,0,2.3623,2.372,2.3805,2.383,2.3882,2.3921,2.3945,2.3984,2.402,2.4068,2.4091,2.4147,2.4177,2.422,2.4227,2.4189,2.4326,2.4275,2.4334,2.4334,2.4364,2.4362,2.4531,2.4384,2.4383,2.4383,2.4383,0,2.3756,2.3831,2.3849,2.3901,2.3984,2.3988,2.407,2.409,2.4125,2.418,2.4167,2.4219,2.4226,2.4279,2.4285,2.4366,2.438,2.4387,2.4388,2.4389,2.4388,2.4409,2.4401,2.4388,2.4387,2.4386,2.4385,0,2.3876,2.3891,2.3982,2.4024,2.4036,2.4096,2.4131,2.4181,2.4195,2.4265,2.4282,2.4304,2.4366,2.4377,2.445,2.4454,2.4551,2.4543,2.4537,2.4536,2.4595,2.4589,2.4784,2.4809,2.4645,2.4646,2.4648,0,2.3959,2.4017,2.4065,2.4102,2.4127,2.4186,2.4223,2.4229,2.4268,2.432,2.4363,2.4424,2.4474,2.4574,2.4595,2.4651,2.4645,2.4709,2.4653,2.4652,2.4646,2.4642,2.4648,2.472,2.4722,2.4723,2.4724,0,2.4106,2.4111,2.4165,2.4222,2.4267,2.4311,2.4354,2.4384,2.4396,2.444,2.4504,2.4542,2.4617,2.4678,2.4733,2.4756,2.4742,2.4742,2.4758,2.476,2.4754,2.4758,2.4566,2.4737,2.4736,2.4735,2.4734,2.4734,2.4211,2.4261,2.4303,2.4363,2.4396,2.4436,2.4485,2.4505,2.4559,2.4621,2.4621,2.4691,2.4731,2.4805,2.4831,2.4885,2.4865,2.4889,2.4895,2.4901,2.4907,2.4745,2.4895,2.4895,2.4895,2.4894,2.4894,0,2.4357,2.4383,2.4439,2.4499,2.4546,2.453,2.4576,2.4617,2.4679,2.4718,2.4767,2.484,2.4899,2.4926,2.4983,2.5021,2.5016,2.5036,2.5033,2.5039,2.4922,2.4902,2.5039,2.5039,2.5039,2.5039,2.5039,2.5039,2.4438,2.4522,2.4532,2.4631,2.4657,2.4726,2.4754,2.4791,2.4822,2.4905,2.4954,2.4971,2.5005,2.5065,2.5118,2.5124,2.5145,2.5168,2.5171,2.5062,2.5047,2.5033,2.5014,2.5173,2.5173,2.5284,2.5285,2.5286]},{"header":{"parameterUnit":"m.s-1","parameterCategory":1,"la1":30.2991,"la2":30.254,"lo1":-89.0895,"lo2":-89.0444,"dy":0.0017,"dx":0.0017,"nx":28,"ny":28,"refTime":"2024-03-24T21:00:00:Z","depth":0,"parameterNumber":3,"parameterNumberName":"V-component_of_WINDS"},"data":[0,0,0,0,0,0,0,0,0,0,0,0,0,0,0,0,0,0,0,0,0,0,0,0,0,0,0,0,0,0,0,0,0,0,0,0,0,0,0,0,0,0,0,0,0,0,0,0,0,0,0,0,0,0,0,0,0,0,3.8,3.8003,0,3.8325,3.8329,3.8332,3.8482,3.8482,3.8482,3.8481,3.883,3.8839,3.8849,0,0,0,0,0,0,0,0,0,0,0,0,0,3.7522,3.753,3.7999,3.8003,3.8007,3.8324,3.8329,3.8333,3.8482,3.8482,3.8482,3.8481,3.8827,3.8838,3.8849,0,0,0,0,0,0,0,0,0,0,0,0,0,3.7777,3.7533,3.7999,3.812,3.8134,3.8323,3.8329,3.8334,3.8482,3.8482,3.8482,3.8481,3.8823,3.8837,3.8851,3.8949,0,0,3.8895,3.8901,0,0,0,0,0,0,0,0,3.7762,3.7794,3.8098,3.8112,3.8128,3.8362,3.8288,3.8541,3.8483,3.8351,3.8481,3.8481,3.8676,3.8702,3.8765,3.8965,3.898,3.8896,3.8905,3.8911,3.8915,0,0,0,0,0,0,0,3.7744,3.7781,3.8129,3.8102,3.8121,3.8163,3.8198,3.8337,3.8512,3.8362,3.8374,3.8409,3.8684,3.875,3.8774,3.8986,3.8896,3.8909,3.8917,3.8923,3.9287,3.9288,0,0,0,0,0,0,3.7705,3.7765,3.8118,3.8138,3.794,3.8171,3.8211,3.8288,3.8511,3.8544,3.8409,3.8415,3.8726,3.8757,3.8787,3.8918,3.8911,3.8924,3.8933,3.9286,3.9287,3.9288,0,0,0,0,0,0,3.7694,3.7735,3.8105,3.7955,3.8005,3.818,3.8265,3.8294,3.8361,3.8547,3.858,3.8444,3.8727,3.8767,3.8907,3.8932,3.8931,3.8944,3.9285,3.9286,3.9288,3.9179,0,0,0,0,0,0,3.768,3.773,3.7765,3.7955,3.8013,3.8215,3.8266,3.8301,3.8383,3.8394,3.8588,3.862,3.873,3.8885,3.8921,3.8952,3.8955,3.9283,3.9285,3.9287,3.9182,3.9177,3.9173,0,0,0,0,0,3.7662,3.7725,3.7766,3.7808,3.806,3.8216,3.825,3.837,3.8385,3.8424,3.8544,3.8614,3.8923,3.8898,3.894,3.8976,3.9282,3.9285,3.9287,3.9184,3.9178,3.9173,0,0,0,0,0,0,3.754,3.7752,3.78,3.7925,3.8051,3.8241,3.8294,3.836,3.8489,3.8494,3.8642,3.8685,3.8813,3.8909,3.8877,3.9084,3.9109,3.912,3.9016,3.9013,3.9008,3.8984,3.8967,0,0,0,0,0,3.7526,3.763,3.7812,3.7906,3.7965,3.8118,3.8191,3.8272,3.8411,3.8466,3.8596,3.8732,3.886,3.8942,3.907,3.9196,3.9243,3.9242,3.9237,3.9233,3.9241,3.9318,3.9321,3.9296,3.9296,3.9296,0,0,3.7502,3.763,3.7688,3.7884,3.7991,3.81,3.8163,3.8275,3.8359,3.8486,3.8625,3.8725,3.8887,3.902,3.9086,3.9105,3.9258,3.9236,3.9231,3.9242,3.9321,3.9323,3.9325,3.9298,3.9297,3.9297,0,0,3.7512,3.7618,3.7708,3.7813,3.7972,3.8073,3.8094,3.8275,3.8345,3.8486,3.8583,3.8688,3.8904,3.9016,3.9101,3.9154,3.9224,3.9192,3.9171,3.9244,3.9246,3.9248,3.9269,3.9275,3.9199,3.9199,3.9199,0,3.7463,3.7626,3.7747,3.7854,3.7939,3.8052,3.8147,3.8245,3.8439,3.8498,3.8514,3.8788,3.8906,3.9068,3.908,3.9145,3.9178,3.9171,3.9234,3.9238,3.9243,3.9265,3.9272,3.9194,3.9195,3.9195,3.9196,0,3.7558,3.767,3.7724,3.7904,3.7995,3.8095,3.8236,3.8315,3.8388,3.8489,3.8634,3.8778,3.8938,3.8982,3.9058,3.9157,3.9163,3.9205,3.9234,3.9238,3.9261,3.9271,3.9187,3.9189,3.919,3.9192,0,0,3.7502,3.7745,3.7763,3.7847,3.803,3.8122,3.8229,3.838,3.8446,3.8577,3.8674,3.8854,3.8894,3.899,3.9079,3.9143,3.9178,3.9178,3.9184,3.9175,3.93,3.9268,3.9276,3.9225,3.9227,3.9229,3.9287,0,3.7539,3.773,3.7842,3.7989,3.8096,3.8206,3.83,3.8426,3.8523,3.8633,3.8744,3.8869,3.891,3.897,3.9037,3.9159,3.9206,3.9156,3.9322,3.9326,3.9278,3.9288,3.9254,3.9302,3.9297,3.9299,3.93,0,3.7608,3.7731,3.7886,3.8058,3.8108,3.8189,3.8338,3.8439,3.8586,3.8653,3.8759,3.8848,3.8971,3.8988,3.9163,3.9126,3.9201,3.9271,3.9276,3.9298,3.9314,3.9311,3.932,3.9328,3.9315,3.9314,3.9313,0,3.7553,3.7758,3.7878,3.7946,3.8149,3.8204,3.8293,3.8438,3.8522,3.8654,3.8711,3.8857,3.8937,3.9051,3.9179,3.9179,3.9341,3.9369,3.9405,3.9401,3.9435,3.9432,3.9458,3.948,3.948,3.948,3.9479,0,3.7583,3.7675,3.7856,3.793,3.8037,3.8167,3.8272,3.837,3.8499,3.8598,3.8704,3.8796,3.8958,3.9072,3.9173,3.9304,3.9339,3.9401,3.9427,3.9392,3.9384,3.9444,3.9445,3.9482,3.9481,3.9481,3.948,0,3.754,3.7664,3.7803,3.7982,3.803,3.8101,3.8259,3.8338,3.844,3.8564,3.8601,3.8764,3.8903,3.9041,3.923,3.9299,3.9429,3.9463,3.9377,3.9392,3.942,3.9416,3.9487,3.9505,3.9512,3.9512,3.9511,0,3.7552,3.7624,3.781,3.7881,3.7965,3.8079,3.8164,3.8297,3.8382,3.8554,3.8614,3.8759,3.8883,3.9102,3.9241,3.9387,3.9427,3.9442,3.945,3.9413,3.943,3.9425,3.9434,3.9438,3.9438,3.9437,3.9436,0,3.756,3.7618,3.7733,3.787,3.7967,3.8083,3.8203,3.8257,3.8414,3.8505,3.8645,3.8741,3.8932,3.9077,3.9239,3.9337,3.9415,3.9432,3.9449,3.9415,3.9362,3.9393,3.9367,3.9431,3.9431,3.9432,3.9432,3.9432,3.7547,3.7617,3.7758,3.7883,3.7986,3.8096,3.8179,3.829,3.8407,3.8568,3.8642,3.8784,3.8933,3.9157,3.9254,3.9371,3.9392,3.9415,3.9421,3.9425,3.9418,3.9341,3.9402,3.9402,3.9402,3.9403,3.9403,0,3.7562,3.7658,3.7771,3.7933,3.8033,3.8091,3.8227,3.8309,3.843,3.8559,3.8677,3.8841,3.8982,3.9131,3.9283,3.9349,3.9389,3.9385,3.9382,3.9404,3.939,3.9362,3.935,3.935,3.935,3.935,3.935,3.935,3.7582,3.7702,3.7777,3.7952,3.8049,3.8184,3.8258,3.8361,3.8465,3.864,3.8756,3.885,3.8989,3.9152,3.9286,3.9327,3.938,3.9365,3.9417,3.9402,3.9405,3.9408,3.9382,3.9375,3.9375,3.9422,3.9422,3.9422]}]]